Change the Weather History Date:

Monday, October 14, 2013

  Actual Average Record
Temperature  
Mean Temperature 37 °F 45 °F  
Max Temperature 42 °F 61 °F 77 °F (1999)
Min Temperature 32 °F 29 °F 16 °F (2003)
Degree Days  
Heating Degree Days 28 20  
Month to date heating degree days 286 241  
Since 1 July heating degree days 498 548  
Cooling Degree Days 0 0  
Month to date cooling degree days 0 0  
Year to date cooling degree days 324 172  
Moisture  
Dew Point 34 °F    
Average Humidity 91    
Maximum Humidity 100    
Minimum Humidity 82    
Precipitation  
Precipitation 0.60 in 0.06 in 0.60 in (2013)
Month to date precipitation 2.26 0.88  
Year to date precipitation 15.29 12.50  
Sea Level Pressure  
Sea Level Pressure 30.07 in    
Wind  
Wind Speed 2 mph (SW)    
Max Wind Speed 15 mph    
Max Gust Speed 20 mph    
Visibility 7 miles    
Events Rain , Snow    
T = Trace of Precipitation, MM = Missing Value Source: NWS Daily Summary

Daily Weather History Graph

Daily Weather History Graph

Search for Another Location

Airport or City:

Trip Planner

Search our weather history database for the weather conditions in past years. The results will help you decide how hot, cold, wet, or windy it might be!

Date:

Astronomy

Oct. 14, 2013 Rise Set
Actual Time 7:21 AM MDT 6:32 PM MDT
Civil Twilight 6:54 AM MDT 7:00 PM MDT
Nautical Twilight 6:22 AM MDT 7:31 PM MDT
Astronomical Twilight 5:51 AM MDT 8:02 PM MDT
Moon 4:04 PM MDT (10/14) 2:41 AM MDT (10/14)
Length of Visible Light 12h 06m
Length of Day
11h 11m
Waxing Gibbous, 80% of the Moon is Illuminated
Oct 14
Waxing Gibbous
Oct 18
Full
Oct 26
Last Quarter
Nov 3
New
Nov 9
First Quarter

Hourly Weather History & Observations

Time (MDT) Temp. Windchill Dew Point Humidity Pressure Visibility Wind Dir Wind Speed Gust Speed Precip Events Conditions
12:53 AM 42.1 °F 37.1 °F 37.9 °F 85% 29.87 in 10.0 mi SW 8.1 mph - 0.01 in Rain Light Rain
1:00 AM 42.8 °F 37.5 °F 37.4 °F 81% 30.04 in 10.0 mi SW 9.2 mph - 0.01 in Rain Light Rain
1:53 AM 39.9 °F 36.7 °F 36.0 °F 86% 29.87 in 10.0 mi South 4.6 mph - 0.08 in Rain Light Rain
2:49 AM 37.4 °F 29.3 °F 35.6 °F 93% 30.02 in 5.0 mi WSW 12.7 mph - 0.09 in Rain Rain
2:53 AM 37.0 °F 30.4 °F 34.0 °F 89% 29.88 in 5.0 mi WSW 9.2 mph 17.3 mph 0.10 in Rain Rain
3:09 AM 35.6 °F 30.7 °F 35.6 °F 100% 30.02 in 6.0 mi SW 5.8 mph - 0.03 in Rain Rain
3:31 AM 33.8 °F 28.6 °F 33.8 °F 100% 30.02 in 5.0 mi SW 5.8 mph - 0.06 in Snow Light Snow
3:49 AM 33.8 °F - 33.8 °F 100% 30.01 in 4.0 mi Calm Calm - 0.10 in Snow Light Snow
3:53 AM 34.0 °F - 33.1 °F 96% 29.88 in 5.0 mi Calm Calm - 0.10 in Snow Light Snow
4:32 AM 33.8 °F 27.0 °F 33.8 °F 100% 29.99 in 9.0 mi NE 8.1 mph - 0.02 in Snow Light Snow
4:53 AM 34.0 °F - 33.1 °F 96% 29.88 in 10.0 mi Calm Calm - 0.02 in   Overcast
5:32 AM 35.6 °F - 33.8 °F 93% 30.00 in 10.0 mi Calm Calm - N/A   Overcast
5:53 AM 35.1 °F - 34.0 °F 96% 29.90 in 10.0 mi Calm Calm - N/A   Overcast
6:14 AM 35.6 °F 31.7 °F 33.8 °F 93% 30.01 in 10.0 mi NNW 4.6 mph - N/A   Overcast
6:50 AM 33.8 °F - 33.8 °F 100% 30.02 in 3.0 mi Calm Calm - 0.05 in Rain Heavy Rain
6:53 AM 34.0 °F - 33.1 °F 96% 29.95 in 3.0 mi Calm Calm - 0.06 in Rain Heavy Rain
7:17 AM 33.8 °F 30.8 °F 33.8 °F 100% 30.02 in 9.0 mi South 3.5 mph - 0.02 in Rain Light Rain
7:34 AM 33.8 °F 30.8 °F 33.8 °F 100% 30.03 in 9.0 mi SSW 3.5 mph - 0.02 in Rain Light Rain
7:53 AM 33.1 °F - 32.0 °F 96% 29.98 in 1.8 mi Calm Calm - 0.04 in Snow Light Snow
8:04 AM 32.0 °F - 32.0 °F 100% 30.04 in 2.0 mi Calm Calm - 0.01 in Snow Light Snow
8:16 AM 32.0 °F - 32.0 °F 100% 30.05 in 1.5 mi Calm Calm - 0.02 in Snow Light Snow
8:25 AM 32.0 °F - 32.0 °F 100% 30.05 in 1.5 mi Calm Calm - 0.04 in Snow Light Snow
8:39 AM 32.0 °F - 32.0 °F 100% 30.05 in 2.5 mi Calm Calm - 0.05 in Snow Light Snow
8:53 AM 32.0 °F - 32.0 °F 100% 30.01 in 2.0 mi Calm Calm - 0.06 in Snow Light Snow
9:12 AM 33.8 °F - 32.0 °F 93% 30.07 in 5.0 mi Calm Calm - 0.00 in Snow Light Snow
9:32 AM 33.8 °F 30.8 °F 32.0 °F 93% 30.07 in 2.0 mi NNE 3.5 mph - 0.02 in Snow Light Snow
9:42 AM 33.8 °F - 32.0 °F 93% 30.08 in 4.0 mi Calm Calm - 0.02 in Snow Light Snow
9:53 AM 33.1 °F 28.7 °F 32.0 °F 96% 30.02 in 5.0 mi NE 4.6 mph - 0.03 in Snow Light Snow
10:25 AM 33.8 °F - 33.8 °F 100% 30.09 in 4.0 mi Calm Calm - 0.01 in Snow Light Snow
10:53 AM 35.1 °F - 34.0 °F 96% 30.04 in 6.0 mi Calm Calm - 0.02 in Rain Light Rain
11:53 AM 37.0 °F 34.5 °F 35.1 °F 93% 30.05 in 10.0 mi WSW 3.5 mph - 0.02 in Rain Light Rain
12:53 PM 39.0 °F - 37.0 °F 93% 30.06 in 10.0 mi Calm Calm - 0.01 in   Overcast
1:14 PM 41.0 °F 37.1 °F 37.4 °F 87% 30.11 in 10.0 mi ENE 5.8 mph - N/A   Overcast
1:53 PM 39.9 °F 36.7 °F 37.0 °F 89% 30.06 in 10.0 mi East 4.6 mph - N/A   Overcast
2:35 PM 39.2 °F 37.0 °F 35.6 °F 87% 30.12 in 8.0 mi East 3.5 mph - 0.00 in Rain Light Rain
2:53 PM 39.0 °F 36.8 °F 35.1 °F 86% 30.09 in 7.0 mi South 3.5 mph - 0.02 in Rain Light Rain
3:23 PM 39.2 °F 34.2 °F 35.6 °F 87% 30.14 in 10.0 mi WNW 6.9 mph - 0.00 in Rain Light Rain
3:53 PM 39.0 °F 32.3 °F 36.0 °F 89% 30.12 in 10.0 mi WSW 10.4 mph - 0.00 in Rain Light Rain
4:26 PM 39.2 °F 33.0 °F 37.4 °F 93% 30.15 in 10.0 mi SW 9.2 mph - 0.01 in Rain Light Rain
4:53 PM 39.9 °F 35.8 °F 37.0 °F 89% 30.13 in 10.0 mi SW 5.8 mph - 0.01 in   Overcast
5:53 PM 39.9 °F - 35.1 °F 83% 30.13 in 10.0 mi Calm Calm - N/A   Overcast
6:53 PM 39.0 °F - 36.0 °F 89% 30.15 in 10.0 mi Calm Calm - 0.00 in Rain Light Rain
7:53 PM 37.9 °F 35.5 °F 36.0 °F 93% 30.18 in 10.0 mi SW 3.5 mph - 0.00 in   Overcast
8:08 PM 37.4 °F 32.1 °F 35.6 °F 93% 30.20 in 10.0 mi WSW 6.9 mph - 0.00 in Rain Light Rain
8:53 PM 37.0 °F 34.5 °F 35.1 °F 93% 30.20 in 10.0 mi SSW 3.5 mph - 0.00 in   Overcast
9:53 PM 37.0 °F - 34.0 °F 89% 30.22 in 10.0 mi Calm Calm - 0.00 in   Overcast
10:06 PM 37.4 °F 33.8 °F 33.8 °F 87% 30.22 in 6.0 mi NE 4.6 mph - 0.02 in Rain Heavy Rain
10:27 PM 37.4 °F - 33.8 °F 87% 30.22 in 10.0 mi Calm Calm - 0.02 in   Overcast
10:53 PM 37.0 °F - 35.1 °F 93% 30.22 in 7.0 mi Calm Calm - 0.02 in Rain Light Rain
11:17 PM 35.6 °F - 33.8 °F 93% 30.22 in 10.0 mi Calm Calm - 0.01 in Rain Light Rain
11:32 PM 35.6 °F 32.8 °F 35.6 °F 100% 30.23 in 10.0 mi SSW 3.5 mph - 0.01 in Rain Light Rain
11:53 PM 36.0 °F 33.3 °F 34.0 °F 93% 30.21 in 10.0 mi South 3.5 mph - 0.01 in Rain Light Rain